 day,  time,  air_temp(C),  RH(%),  ground_temp10cm(C),  ground_temp20cm(C),  ground_temp40cm(C),  precipitation(mm/h),  Solar_Radiation(MJ/m2h),  lack, 
 02/11/01, 01:00,   5.4,  67,   6.8,   8.0,   9.8,   0.0,  0.00, 
 02/11/01, 02:00,   5.1,  70,   6.7,   8.1,   9.9,   0.0,  0.00, 
 02/11/01, 03:00,   5.2,  77,   6.7,   8.0,   9.9,   0.0,  0.00, 
 02/11/01, 04:00,   4.0,  93,   6.7,   8.0,   9.8,   0.0,  0.00, 
 02/11/01, 05:00,   4.7,  95,   6.6,   7.9,   9.8,   0.0,  0.00, 
 02/11/01, 06:00,   4.7,  96,   6.6,   7.8,   9.8,   0.0,  0.00, 
 02/11/01, 07:00,   5.1,  95,   6.6,   7.8,   9.8,   0.0,  0.00, 
 02/11/01, 08:00,   5.3,  99,   6.6,   7.8,   9.8,   0.0,  0.04, 
 02/11/01, 09:00,   5.6,  99,   6.6,   7.8,   9.8,   0.0,  0.14, 
 02/11/01, 10:00,   5.9,  99,   6.7,   7.7,   9.8,   1.0,  0.28, 
 02/11/01, 11:00,   6.2,  99,   6.8,   7.7,   9.8,   1.0,  0.34, 
 02/11/01, 12:00,   6.2,  99,   7.1,   7.8,   9.8,   1.5,  0.30, 
 02/11/01, 13:00,   6.7,  99,   7.2,   7.8,   9.8,   1.5,  0.36, 
 02/11/01, 14:00,   6.3,  98,   7.4,   7.8,   9.8,   1.0,  0.17, 
 02/11/01, 15:00,   6.3,  99,   7.5,   7.8,   9.8,   0.5,  0.22, 
 02/11/01, 16:00,   6.2,  99,   7.5,   7.9,   9.7,   0.0,  0.20, 
 02/11/01, 17:00,   6.1,  97,   7.5,   7.9,   9.7,   0.5,  0.01, 
 02/11/01, 18:00,   5.7,  99,   7.5,   7.9,   9.7,   0.0,  0.00, 
 02/11/01, 19:00,   5.3,  99,   7.5,   8.0,   9.7,   0.5,  0.00, 
 02/11/01, 20:00,   4.5,  89,   7.5,   8.0,   9.7,   0.0,  0.00, 
 02/11/01, 21:00,   3.4,  95,   7.4,   8.0,   9.7,   0.0,  0.00, 
 02/11/01, 22:00,   2.6,  92,   7.2,   8.0,   9.7,   0.0,  0.00, 
 02/11/01, 23:00,   1.9,  99,   7.1,   8.0,   9.6,   0.0,  0.00, 
 02/11/02, 00:00,   1.0,  98,   7.0,   8.0,   9.5,   0.0,  0.00, 
 02/11/02, 01:00,   0.2,  97,   6.9,   8.0,   9.5,   0.0,  0.00, 
 02/11/02, 02:00,  -1.5,  96,   6.8,   8.0,   9.5,   0.5,  0.00, 
 02/11/02, 03:00,  -2.0,  89,   6.6,   7.9,   9.5,   0.0,  0.00, 
 02/11/02, 04:00,  -2.0,  89,   6.4,   7.9,   9.5,   0.0,  0.00, 
 02/11/02, 05:00,  -2.2,  88,   6.3,   7.8,   9.5,   0.0,  0.00, 
 02/11/02, 06:00,  -2.3,  87,   6.2,   7.8,   9.5,   0.0,  0.00, 
 02/11/02, 07:00,  -2.3,  92,   5.9,   7.7,   9.5,   0.0,  0.00, 
 02/11/02, 08:00,  -2.0,  91,   5.9,   7.7,   9.5,   0.0,  0.18, 
 02/11/02, 09:00,  -1.4,  90,   5.8,   7.6,   9.5,   0.0,  0.36, 
 02/11/02, 10:00,  -1.5,  98,   5.7,   7.6,   9.5,   0.0,  0.37, 
 02/11/02, 11:00,  -1.4,  99,   5.7,   7.5,   9.5,   0.0,  0.39, 
 02/11/02, 12:00,   0.4,  91,   5.7,   7.5,   9.5,   0.0,  1.42, 
 02/11/02, 13:00,   0.2,  92,   6.1,   7.4,   9.5,   0.0,  0.83, 
 02/11/02, 14:00,   0.6,  86,   6.2,   7.4,   9.5,   0.0,  0.83, 
 02/11/02, 15:00,   0.7,  90,   6.4,   7.4,   9.5,   0.0,  1.25, 
 02/11/02, 16:00,   0.3,  94,   6.6,   7.4,   9.5,   0.0,  0.44, 
 02/11/02, 17:00,  -0.1,  96,   6.6,   7.4,   9.5,   0.0,  0.19, 
 02/11/02, 18:00,  -0.5,  97,   6.6,   7.4,   9.5,   0.0,  0.00, 
 02/11/02, 19:00,  -0.6,  97,   6.5,   7.4,   9.4,   0.0,  0.00, 
 02/11/02, 20:00,  -0.8,  95,   6.2,   7.4,   9.4,   0.0,  0.00, 
 02/11/02, 21:00,  -1.1,  97,   6.1,   7.4,   9.4,   0.0,  0.00, 
 02/11/02, 22:00,  -1.7,  97,   5.9,   7.4,   9.4,   1.0,  0.00, 
 02/11/02, 23:00,  -1.5,  97,   5.8,   7.4,   9.4,   0.5,  0.00, 
 02/11/03, 00:00,  -1.9,  97,   5.7,   7.4,   9.4,   0.5,  0.00, 
 02/11/03, 01:00,  -1.7,  96,   5.6,   7.3,   9.4,   0.0,  0.00, 
 02/11/03, 02:00,  -1.6,  97,   5.5,   7.3,   9.4,   0.0,  0.00, 
 02/11/03, 03:00,  -1.7,  98,   5.5,   7.2,   9.4,   2.5,  0.00, 
 02/11/03, 04:00,  -1.6,  97,   5.4,   7.2,   9.3,   0.5,  0.00, 
 02/11/03, 05:00,  -1.6,  97,   5.4,   7.2,   9.3,   0.5,  0.00, 
 02/11/03, 06:00,  -2.3,  94,   5.3,   7.1,   9.3,   0.0,  0.00, 
 02/11/03, 07:00,  -1.7,  83,   5.3,   7.1,   9.3,   0.0,  0.00, 
 02/11/03, 08:00,  -2.0,  97,   5.3,   7.0,   9.3,   0.0,  0.00, 
 02/11/03, 09:00,  -1.4,  95,   5.2,   7.0,   9.3,   0.5,  0.10, 
 02/11/03, 10:00,  -1.4,  97,   5.2,   7.0,   9.3,   1.0,  0.12, 
 02/11/03, 11:00,  -1.1,  97,   5.2,   6.9,   9.3,   0.5,  0.12, 
 02/11/03, 12:00,  -1.0,  97,   5.1,   6.9,   9.2,   0.0,  0.11, 
 02/11/03, 13:00,  -1.1,  97,   5.1,   6.9,   9.2,   0.5,  0.02, 
 02/11/03, 14:00,  -0.9,  98,   5.1,   6.8,   9.2,   0.5,  0.01, 
 02/11/03, 15:00,  -0.9,  98,   5.1,   6.8,   9.2,   1.0,  0.00, 
 02/11/03, 16:00,  -0.9,  99,   5.0,   6.8,   9.2,   0.5,  0.00, 
 02/11/03, 17:00,  -1.0,  99,   5.0,   6.8,   9.2,   0.5,  0.00, 
 02/11/03, 18:00,  -1.2,  98,   5.0,   6.7,   9.2,   0.0,  0.00, 
 02/11/03, 19:00,  -1.3,  98,   5.0,   6.7,   9.1,   0.0,  0.00, 
 02/11/03, 20:00,  -1.5,  98,   4.9,   6.7,   9.1,   1.0,  0.00, 
 02/11/03, 21:00,  -1.5,  99,   4.9,   6.6,   9.1,   3.5,  0.00, 
 02/11/03, 22:00,  -1.7,  99,   4.9,   6.6,   9.1,   0.0,  0.00, 
 02/11/03, 23:00,  -1.7,  98,   4.9,   6.6,   9.1,   0.0,  0.00, 
 02/11/04, 00:00,  -2.0,  97,   4.9,   6.6,   9.0,   0.0,  0.00, 
 02/11/04, 01:00,  -2.1,  96,   4.9,   6.6,   9.0,   0.5,  0.00, 
 02/11/04, 02:00,  -2.0,  96,   4.8,   6.5,   9.0,   1.0,  0.00, 
 02/11/04, 03:00,  -2.2,  95,   4.8,   6.5,   9.0,   0.0,  0.00, 
 02/11/04, 04:00,  -2.2,  93,   4.8,   6.5,   9.0,   0.0,  0.00, 
 02/11/04, 05:00,  -2.4,  95,   4.8,   6.5,   9.0,   0.0,  0.00, 
 02/11/04, 06:00,  -2.6,  96,   4.8,   6.5,   9.0,   0.5,  0.00, 
 02/11/04, 07:00,  -2.5,  96,   4.7,   6.4,   8.9,   0.5,  0.00, 
 02/11/04, 08:00,  -2.1,  94,   4.7,   6.4,   8.9,   0.5,  0.00, 
 02/11/04, 09:00,  -2.2,  97,   4.7,   6.4,   8.9,   0.0,  0.00, 
 02/11/04, 10:00,  -2.1,  95,   4.7,   6.4,   8.9,   0.0,  0.00, 
 02/11/04, 11:00,  -1.5,  96,   4.7,   6.4,   8.9,   0.0,  0.04, 
 02/11/04, 12:00,  -1.8,  99,   4.7,   6.2,   8.9,   1.0,  0.07, 
 02/11/04, 13:00,  -1.9,  95,   4.7,   6.2,   8.8,   0.5,  0.05, 
 02/11/04, 14:00,  -2.1,  93,   4.6,   6.3,   8.8,   0.0,  0.07, 
 02/11/04, 15:00,  -2.1,  92,   4.6,   6.2,   8.8,   1.0,  0.00, 
 02/11/04, 16:00,  -2.4,  96,   4.6,   6.2,   8.8,   0.0,  0.01, 
 02/11/04, 17:00,  -2.4,  96,   4.6,   6.3,   8.8,   1.0,  0.00, 
 02/11/04, 18:00,  -2.4,  97,   4.6,   6.2,   8.8,   0.0,  0.00, 
 02/11/04, 19:00,  -2.4,  98,   4.6,   6.1,   8.7,   0.0,  0.00, 
 02/11/04, 20:00,  -2.7,  97,   4.6,   6.2,   8.7,   0.0,  0.00, 
 02/11/04, 21:00,  -2.6,  97,   4.6,   6.2,   8.7,   1.0,  0.00, 
 02/11/04, 22:00,  -3.2,  96,   4.5,   6.2,   8.7,   0.5,  0.00, 
 02/11/04, 23:00,  -2.9,  97,   4.5,   6.2,   8.7,   0.0,  0.00, 
 02/11/05, 00:00,  -2.7,  97,   4.5,   6.2,   8.7,   0.0,  0.00, 
 02/11/05, 01:00,  -2.7,  97,   4.5,   6.0,   8.7,   0.0,  0.00, 
 02/11/05, 02:00,  -3.0,  96,   4.5,   6.1,   8.6,   0.5,  0.00, 
 02/11/05, 03:00,  -3.1,  97,   4.5,   6.1,   8.6,   1.0,  0.00, 
 02/11/05, 04:00,  -3.2,  96,   4.5,   6.0,   8.6,   0.0,  0.00, 
 02/11/05, 05:00,  -3.0,  96,   4.5,   6.0,   8.6,   1.0,  0.00, 
 02/11/05, 06:00,  -3.2,  96,   4.5,   6.1,   8.6,   1.0,  0.00, 
 02/11/05, 07:00,  -3.2,  97,   4.5,   6.1,   8.6,   0.0,  0.00, 
 02/11/05, 08:00,  -3.2,  96,   4.4,   6.0,   8.6,   0.0,  0.00, 
 02/11/05, 09:00,  -2.8,  97,   4.4,   5.9,   8.5,   0.5,  0.05, 
 02/11/05, 10:00,  -2.5,  98,   4.4,   6.0,   8.5,   1.5,  0.10, 
 02/11/05, 11:00,  -1.9,  95,   4.4,   6.0,   8.5,   1.0,  0.13, 
 02/11/05, 12:00,  -1.9,  93,   4.5,   6.0,   8.5,   0.5,  0.14, 
 02/11/05, 13:00,  -1.8,  91,   4.5,   6.0,   8.5,   0.0,  0.18, 
 02/11/05, 14:00,  -1.5,  87,   4.5,   6.0,   8.5,   0.0,  0.19, 
 02/11/05, 15:00,  -2.2,  92,   4.5,   6.0,   8.5,   0.5,  0.06, 
 02/11/05, 16:00,  -2.1,  89,   4.5,   6.0,   8.5,   0.0,  0.00, 
 02/11/05, 17:00,  -2.4,  90,   4.5,   5.9,   8.4,   0.0,  0.00, 
 02/11/05, 18:00,  -2.7,  94,   4.4,   5.9,   8.4,   0.5,  0.00, 
 02/11/05, 19:00,  -2.5,  92,   4.3,   5.9,   8.4,   0.0,  0.00, 
 02/11/05, 20:00,  -2.7,  97,   4.3,   5.9,   8.4,   1.0,  0.00, 
 02/11/05, 21:00,  -2.9,  91,   4.3,   5.9,   8.4,   0.0,  0.00, 
 02/11/05, 22:00,  -2.7,  89,   4.3,   5.9,   8.4,   0.5,  0.00, 
 02/11/05, 23:00,  -3.3,  94,   4.3,   5.9,   8.4,   0.0,  0.00, 
 02/11/06, 00:00,  -3.0,  91,   4.3,   5.9,   8.3,   0.0,  0.00, 
 02/11/06, 01:00,  -3.1,  93,   4.3,   5.9,   8.3,   0.0,  0.00, 
 02/11/06, 02:00,  -3.1,  95,   4.3,   5.8,   8.3,   0.0,  0.00, 
 02/11/06, 03:00,  -2.8,  90,   4.2,   5.8,   8.3,   0.0,  0.00, 
 02/11/06, 04:00,  -3.0,  92,   4.2,   5.8,   8.3,   0.0,  0.00, 
 02/11/06, 05:00,  -3.1,  92,   4.2,   5.8,   8.3,   0.0,  0.00, 
 02/11/06, 06:00,  -3.1,  91,   4.2,   5.8,   8.3,   0.0,  0.00, 
 02/11/06, 07:00,  -3.2,  91,   4.2,   5.8,   8.3,   0.0,  0.00, 
 02/11/06, 08:00,  -3.0,  98,   4.2,   5.8,   8.2,   0.0,  0.02, 
 02/11/06, 09:00,  -2.5,  91,   4.2,   5.8,   8.2,   0.0,  0.10, 
 02/11/06, 10:00,  -2.0,  88,   4.2,   5.8,   8.2,   0.0,  0.12, 
 02/11/06, 11:00,  -1.8,  87,   4.2,   5.7,   8.2,   0.0,  0.24, 
 02/11/06, 12:00,   0.0,  81,   4.3,   5.7,   8.2,   0.0,  0.71, 
 02/11/06, 13:00,   0.0,  79,   4.3,   5.7,   8.3,   0.0,  1.05, 
 02/11/06, 14:00,   0.2,  81,   4.3,   5.7,   8.3,   0.0,  0.92, 
 02/11/06, 15:00,  -0.1,  78,   4.3,   5.7,   8.3,   0.0,  0.98, 
 02/11/06, 16:00,  -0.7,  83,   4.2,   5.7,   8.3,   0.0,  0.58, 
 02/11/06, 17:00,  -1.5,  78,   4.2,   5.7,   8.2,   0.0,  0.05, 
 02/11/06, 18:00,  -3.2,  90,   4.2,   5.7,   8.2,   0.0,  0.00, 
 02/11/06, 19:00,  -3.9,  90,   4.2,   5.7,   8.1,   0.0,  0.00, 
 02/11/06, 20:00,  -4.2,  87,   4.2,   5.6,   8.1,   0.0,  0.00, 
 02/11/06, 21:00,  -4.7,  89,   4.2,   5.6,   8.1,   0.0,  0.00, 
 02/11/06, 22:00,  -5.0,  89,   4.2,   5.6,   8.1,   0.0,  0.00, 
 02/11/06, 23:00,  -5.0,  86,   4.2,   5.6,   8.1,   0.0,  0.00, 
 02/11/07, 00:00,  -4.7,  83,   4.1,   5.6,   8.1,   0.0,  0.00, 
 02/11/07, 01:00,  -2.7,  78,   4.1,   5.6,   8.0,   0.0,  0.00, 
 02/11/07, 02:00,  -3.2,  86,   4.1,   5.6,   8.0,   0.0,  0.00, 
 02/11/07, 03:00,  -2.3,  84,   4.1,   5.6,   8.0,   0.0,  0.00, 
 02/11/07, 04:00,  -2.7,  89,   4.0,   5.6,   8.0,   0.0,  0.00, 
 02/11/07, 05:00,  -1.1,  86,   4.0,   5.6,   8.0,   0.0,  0.00, 
 02/11/07, 06:00,  -0.1,  82,   4.0,   5.5,   8.0,   0.0,  0.00, 
 02/11/07, 07:00,   0.0,  83,   4.0,   5.5,   8.0,   0.0,  0.01, 
 02/11/07, 08:00,   1.1,  83,   4.0,   5.5,   8.0,   0.0,  0.34, 
 02/11/07, 09:00,   3.1,  74,   4.1,   5.5,   8.0,   0.0,  0.69, 
 02/11/07, 10:00,   3.6,  72,   4.1,   5.5,   8.0,   0.0,  1.69, 
 02/11/07, 11:00,   4.3,  69,   4.1,   5.5,   8.0,   0.0,  2.20, 
 02/11/07, 12:00,   5.1,  71,   4.1,   5.5,   8.0,   0.0,  2.24, 
 02/11/07, 13:00,   5.9,  73,   4.1,   5.5,   8.0,   0.0,  2.15, 
 02/11/07, 14:00,   6.1,  72,   4.1,   5.5,   8.0,   0.0,  1.70, 
 02/11/07, 15:00,   4.9,  72,   4.1,   5.5,   8.0,   0.0,  1.20, 
 02/11/07, 16:00,   4.1,  72,   4.0,   5.4,   8.0,   0.0,  0.56, 
 02/11/07, 17:00,   2.5,  83,   4.0,   5.4,   7.9,   0.0,  0.06, 
 02/11/07, 18:00,   1.0,  76,   4.0,   5.4,   7.9,   0.0,  0.00, 
 02/11/07, 19:00,   3.5,  41,   4.0,   5.4,   7.9,   0.0,  0.00, 
 02/11/07, 20:00,   3.1,  42,   4.0,   5.4,   7.9,   0.0,  0.00, 
 02/11/07, 21:00,   0.3,  84,   4.0,   5.4,   7.8,   0.0,  0.00, 
 02/11/07, 22:00,   2.6,  50,   3.9,   5.4,   7.8,   0.0,  0.00, 
 02/11/07, 23:00,   2.8,  57,   3.9,   5.4,   7.8,   0.0,  0.00, 
 02/11/08, 00:00,   3.0,  64,   3.9,   5.3,   7.7,   0.0,  0.00, 
 02/11/08, 01:00,   3.4,  76,   3.9,   5.3,   7.7,   0.0,  0.00, 
 02/11/08, 02:00,   4.6,  80,   3.9,   5.3,   7.7,   0.0,  0.00, 
 02/11/08, 03:00,   5.0,  81,   3.9,   5.3,   7.7,   0.0,  0.00, 
 02/11/08, 04:00,   4.6,  82,   3.9,   5.3,   7.7,   0.0,  0.00, 
 02/11/08, 05:00,   3.9,  94,   3.9,   5.3,   7.7,   0.0,  0.00, 
 02/11/08, 06:00,   4.4,  94,   3.9,   5.3,   7.7,   0.0,  0.00, 
 02/11/08, 07:00,   4.4,  97,   3.9,   5.3,   7.7,   0.0,  0.00, 
 02/11/08, 08:00,   4.7,  99,   3.9,   5.3,   7.6,   0.0,  0.00, 
 02/11/08, 09:00,   5.0,  99,   3.8,   5.2,   7.6,   0.0,  0.03, 
 02/11/08, 10:00,   5.5,  99,   3.8,   5.2,   7.6,   0.0,  0.13, 
 02/11/08, 11:00,   5.5,  99,   3.8,   5.2,   7.7,   0.0,  0.16, 
 02/11/08, 12:00,   5.4,  99,   3.8,   5.2,   7.7,   0.0,  0.39, 
 02/11/08, 13:00,   5.6,  95,   3.7,   5.2,   7.7,   0.0,  0.68, 
 02/11/08, 14:00,   5.5,  92,   3.7,   5.2,   7.6,   0.0,  0.45, 
 02/11/08, 15:00,   4.5,  99,   3.7,   5.2,   7.6,   1.0,  0.00, 
 02/11/08, 16:00,   4.2,  99,   3.6,   5.1,   7.6,   1.5,  0.01, 
 02/11/08, 17:00,   3.7,  99,   3.7,   5.1,   7.5,   0.5,  0.00, 
 02/11/08, 18:00,   3.5,  99,   3.6,   5.1,   7.5,   0.0,  0.00, 
 02/11/08, 19:00,   2.9,  99,   3.5,   4.9,   7.5,   0.0,  0.00, 
 02/11/08, 20:00,   2.5,  99,   3.5,   4.9,   7.4,   0.5,  0.00, 
 02/11/08, 21:00,   1.9,  99,   3.5,   4.9,   7.4,   0.0,  0.00, 
 02/11/08, 22:00,   1.3,  99,   3.5,   4.9,   7.4,   0.5,  0.00, 
 02/11/08, 23:00,   0.3,  98,   3.5,   4.8,   7.4,   0.0,  0.00, 
 02/11/09, 00:00,  -0.1,  99,   3.5,   4.8,   7.3,   0.5,  0.00, 
 02/11/09, 01:00,  -0.6,  99,   3.5,   4.8,   7.3,   0.5,  0.00, 
 02/11/09, 02:00,  -1.5,  99,   3.5,   4.8,   7.3,   4.5,  0.00, 
 02/11/09, 03:00,  -2.1,  96,   3.4,   4.8,   7.3,   0.0,  0.00, 
 02/11/09, 04:00,  -2.0,  97,   3.4,   4.8,   7.3,   1.0,  0.00, 
 02/11/09, 05:00,  -2.1,  96,   3.4,   4.8,   7.2,   0.5,  0.00, 
 02/11/09, 06:00,  -3.0,  96,   3.4,   4.8,   7.2,   3.5,  0.00, 
 02/11/09, 07:00,  -3.5,  91,   3.4,   4.8,   7.2,   1.5,  0.00, 
 02/11/09, 08:00,  -3.6,  97,   3.4,   4.7,   7.2,   0.5,  0.19, 
 02/11/09, 09:00,  -3.2,  97,   3.4,   4.7,   7.2,   2.0,  0.31, 
 02/11/09, 10:00,  -3.1,  99,   3.4,   4.7,   7.2,   3.0,  0.21, 
 02/11/09, 11:00,  -3.2,  97,   3.4,   4.7,   7.2,   0.5,  0.35, 
 02/11/09, 12:00,  -3.2,  96,   3.4,   4.7,   7.2,   0.0,  0.69, 
 02/11/09, 13:00,  -4.2,  95,   3.4,   4.7,   7.2,   1.0,  0.43, 
 02/11/09, 14:00,  -4.7,  90,   3.4,   4.7,   7.1,   0.5,  0.59, 
 02/11/09, 15:00,  -4.6,  93,   3.4,   4.7,   7.0,   0.0,  0.37, 
 02/11/09, 16:00,  -4.9,  94,   3.4,   4.7,   7.1,   1.5,  0.13, 
 02/11/09, 17:00,  -5.2,  93,   3.4,   4.7,   7.1,   2.0,  0.00, 
 02/11/09, 18:00,  -5.0,  95,   3.4,   4.7,   7.1,   2.5,  0.00, 
 02/11/09, 19:00,  -4.8,  95,   3.4,   4.7,   7.1,   1.0,  0.00, 
 02/11/09, 20:00,  -4.7,  94,   3.4,   4.7,   7.1,   0.5,  0.00, 
 02/11/09, 21:00,  -4.5,  96,   3.4,   4.7,   7.0,   0.5,  0.00, 
 02/11/09, 22:00,  -4.5,  96,   3.4,   4.7,   7.1,   0.0,  0.00, 
 02/11/09, 23:00,  -4.4,  94,   3.4,   4.7,   7.1,   0.5,  0.00, 
 02/11/10, 00:00,  -4.4,  95,   3.4,   4.7,   7.1,   0.0,  0.00, 
 02/11/10, 01:00,  -4.2,  94,   3.4,   4.7,   7.1,   0.0,  0.00, 
 02/11/10, 02:00,  -4.3,  95,   3.4,   4.7,   7.0,   0.5,  0.00, 
 02/11/10, 03:00,  -3.8,  92,   3.4,   4.7,   7.0,   0.0,  0.00, 
 02/11/10, 04:00,  -3.4,  93,   3.4,   4.6,   7.0,   0.0,  0.00, 
 02/11/10, 05:00,  -2.9,  92,   3.4,   4.6,   7.0,   0.5,  0.00, 
 02/11/10, 06:00,  -2.7,  93,   3.4,   4.6,   7.0,   0.5,  0.00, 
 02/11/10, 07:00,  -2.3,  94,   3.4,   4.6,   6.9,   0.0,  0.00, 
 02/11/10, 08:00,  -2.2,  97,   3.4,   4.6,   7.0,   0.5,  0.07, 
 02/11/10, 09:00,  -1.3,  96,   3.4,   4.6,   7.0,   0.0,  0.21, 
 02/11/10, 10:00,  -0.6,  96,   3.4,   4.6,   7.0,   0.0,  0.28, 
 02/11/10, 11:00,  -0.3,  95,   3.4,   4.6,   7.0,   0.0,  0.34, 
 02/11/10, 12:00,   0.8,  97,   3.4,   4.6,   7.0,   0.0,  0.62, 
 02/11/10, 13:00,   0.7,  96,   3.4,   4.6,   7.0,   0.0,  0.89, 
 02/11/10, 14:00,   1.1,  90,   3.4,   4.6,   7.0,   0.0,  1.26, 
 02/11/10, 15:00,   1.6,  78,   3.4,   4.6,   7.0,   0.0,  1.10, 
 02/11/10, 16:00,   0.8,  83,   3.4,   4.6,   6.9,   0.0,  0.57, 
 02/11/10, 17:00,   0.4,  79,   3.4,   4.6,   6.9,   0.0,  0.09, 
 02/11/10, 18:00,   0.8,  75,   3.4,   4.6,   6.9,   0.0,  0.00, 
 02/11/10, 19:00,   0.5,  79,   3.3,   4.6,   6.9,   0.0,  0.00, 
 02/11/10, 20:00,   1.3,  73,   3.3,   4.6,   6.9,   0.0,  0.00, 
 02/11/10, 21:00,   1.9,  72,   3.3,   4.6,   6.9,   0.0,  0.00, 
 02/11/10, 22:00,   1.7,  76,   3.3,   4.6,   6.9,   0.0,  0.00, 
 02/11/10, 23:00,   1.4,  78,   3.3,   4.6,   6.9,   0.0,  0.00, 
 02/11/11, 00:00,   0.8,  84,   3.3,   4.6,   6.9,   0.0,  0.00, 
 02/11/11, 01:00,   2.3,  78,   3.3,   4.6,   6.9,   0.0,  0.00, 
 02/11/11, 02:00,   2.2,  79,   3.3,   4.5,   6.9,   0.0,  0.00, 
 02/11/11, 03:00,  -0.5,  93,   3.3,   4.5,   6.9,   0.0,  0.00, 
 02/11/11, 04:00,  -1.4,  94,   3.3,   4.5,   6.9,   0.0,  0.00, 
 02/11/11, 05:00,  -1.3,  93,   3.3,   4.5,   6.9,   0.0,  0.00, 
 02/11/11, 06:00,  -0.6,  88,   3.3,   4.5,   6.9,   0.0,  0.00, 
 02/11/11, 07:00,  -0.1,  89,   3.3,   4.5,   6.9,   0.0,  0.03, 
 02/11/11, 08:00,   1.8,  84,   3.3,   4.5,   6.8,   0.0,  0.50, 
 02/11/11, 09:00,   2.7,  83,   3.3,   4.5,   6.8,   0.0,  0.95, 
 02/11/11, 10:00,   5.2,  68,   3.3,   4.5,   6.8,   0.0,  1.21, 
 02/11/11, 11:00,   5.3,  72,   3.3,   4.5,   6.8,   0.0,  1.10, 
 02/11/11, 12:00,   5.2,  77,   3.3,   4.5,   6.8,   0.0,  0.86, 
 02/11/11, 13:00,   6.1,  77,   3.3,   4.5,   6.8,   0.0,  0.74, 
 02/11/11, 14:00,   7.3,  64,   3.3,   4.5,   6.8,   0.0,  1.34, 
 02/11/11, 15:00,   6.5,  62,   3.4,   4.6,   6.8,   0.0,  1.06, 
 02/11/11, 16:00,   6.0,  63,   3.4,   4.6,   6.8,   0.0,  0.47, 
 02/11/11, 17:00,   5.3,  61,   3.4,   4.6,   6.8,   0.0,  0.04, 
 02/11/11, 18:00,   5.5,  61,   3.3,   4.5,   6.8,   0.0,  0.00, 
 02/11/11, 19:00,   5.2,  66,   3.3,   4.5,   6.8,   0.0,  0.00, 
 02/11/11, 20:00,   4.2,  87,   3.3,   4.5,   6.8,   0.0,  0.00, 
 02/11/11, 21:00,   4.3,  93,   3.3,   4.5,   6.8,   0.0,  0.00, 
 02/11/11, 22:00,   5.3,  93,   3.3,   4.5,   6.7,   0.0,  0.00, 
 02/11/11, 23:00,   5.6,  98,   3.2,   4.4,   6.7,   0.0,  0.00, 
 02/11/12, 00:00,   5.6,  99,   3.2,   4.4,   6.7,   0.0,  0.00, 
 02/11/12, 01:00,   6.2,  99,   3.2,   4.4,   6.7,   0.0,  0.00, 
 02/11/12, 02:00,   6.2,  99,   3.2,   4.4,   6.7,   0.0,  0.00, 
 02/11/12, 03:00,   6.6,  99,   3.2,   4.4,   6.7,   0.0,  0.00, 
 02/11/12, 04:00,   6.3,  99,   3.2,   4.4,   6.7,   0.0,  0.00, 
 02/11/12, 05:00,   6.8,  99,   3.2,   4.4,   6.6,   0.5,  0.00, 
 02/11/12, 06:00,   6.1,  99,   3.1,   4.3,   6.6,   3.5,  0.00, 
 02/11/12, 07:00,   6.9,  99,   3.0,   4.3,   6.6,   0.0,  0.00, 
 02/11/12, 08:00,   7.1,  99,   3.0,   4.2,   6.4,   0.5,  0.04, 
 02/11/12, 09:00,   7.1,  99,   2.9,   4.2,   6.4,   0.5,  0.01, 
 02/11/12, 10:00,   6.2,  99,   2.8,   4.1,   6.4,   3.0,  0.05, 
 02/11/12, 11:00,   6.2,  99,   2.8,   4.0,   6.3,   0.0,  0.03, 
 02/11/12, 12:00,   5.6,  99,   2.8,   4.0,   6.3,   0.0,  0.07, 
 02/11/12, 13:00,   5.7,  99,   2.7,   4.0,   6.2,   0.0,  0.17, 
 02/11/12, 14:00,   4.8,  99,   2.7,   4.0,   6.2,   0.0,  0.16, 
 02/11/12, 15:00,   4.7,  65,   2.7,   3.9,   6.2,   0.0,  0.68, 
 02/11/12, 16:00,   3.1,  83,   2.7,   3.9,   6.2,   0.0,  0.34, 
 02/11/12, 17:00,   3.3,  66,   2.7,   3.9,   6.2,   0.0,  0.01, 
 02/11/12, 18:00,   2.4,  71,   2.7,   3.9,   6.2,   0.0,  0.00, 
 02/11/12, 19:00,   2.5,  68,   2.7,   3.8,   6.1,   0.0,  0.00, 
 02/11/12, 20:00,   2.0,  73,   2.7,   3.9,   6.2,   0.0,  0.00, 
 02/11/12, 21:00,   1.7,  73,   2.7,   3.9,   6.1,   0.0,  0.00, 
 02/11/12, 22:00,   1.5,  70,   2.7,   3.9,   6.1,   0.0,  0.00, 
 02/11/12, 23:00,   0.7,  78,   2.7,   3.8,   6.0,   0.0,  0.00, 
 02/11/13, 00:00,   0.0,  87,   2.7,   3.9,   6.1,   0.0,  0.00, 
 02/11/13, 01:00,   0.0,  86,   2.7,   3.9,   6.1,   0.0,  0.00, 
 02/11/13, 02:00,  -0.3,  89,   2.7,   3.8,   6.0,   0.0,  0.00, 
 02/11/13, 03:00,  -0.6,  90,   2.7,   3.8,   6.0,   0.0,  0.00, 
 02/11/13, 04:00,  -0.4,  87,   2.7,   3.8,   6.0,   0.0,  0.00, 
 02/11/13, 05:00,  -0.7,  92,   2.7,   3.8,   6.0,   0.0,  0.00, 
 02/11/13, 06:00,  -1.0,  95,   2.7,   3.8,   6.0,   0.0,  0.00, 
 02/11/13, 07:00,  -1.3,  97,   2.7,   3.8,   6.0,   0.0,  0.00, 
 02/11/13, 08:00,  -1.8,  97,   2.7,   3.8,   6.0,   0.0,  0.05, 
 02/11/13, 09:00,  -0.7,  92,   2.7,   3.8,   6.0,   0.0,  0.34, 
 02/11/13, 10:00,  -1.3,  97,   2.7,   3.8,   6.0,   0.0,  0.16, 
 02/11/13, 11:00,  -1.1,  97,   2.7,   3.8,   6.0,   0.0,  0.17, 
 02/11/13, 12:00,  -0.8,  97,   2.7,   3.8,   6.0,   0.0,  0.21, 
 02/11/13, 13:00,  -0.7,  97,   2.7,   3.8,   6.0,   0.5,  0.23, 
 02/11/13, 14:00,  -1.1,  97,   2.8,   3.8,   6.0,   0.0,  0.15, 
 02/11/13, 15:00,  -1.1,  96,   2.8,   3.8,   6.0,   0.0,  0.17, 
 02/11/13, 16:00,  -1.6,  96,   2.8,   3.8,   6.0,   0.0,  0.05, 
 02/11/13, 17:00,  -2.0,  97,   2.7,   3.8,   6.0,   0.5,  0.00, 
 02/11/13, 18:00,  -2.3,  97,   2.7,   3.8,   6.0,   0.0,  0.00, 
 02/11/13, 19:00,  -2.3,  98,   2.7,   3.8,   6.0,   0.5,  0.00, 
 02/11/13, 20:00,  -2.9,  96,   2.7,   3.8,   5.9,   0.5,  0.00, 
 02/11/13, 21:00,  -3.2,  97,   2.6,   3.8,   5.9,   0.5,  0.00, 
 02/11/13, 22:00,  -3.7,  95,   2.7,   3.8,   5.9,   0.5,  0.00, 
 02/11/13, 23:00,  -3.9,  91,   2.7,   3.8,   5.9,   0.0,  0.00, 
 02/11/14, 00:00,  -4.1,  90,   2.6,   3.8,   5.9,   0.0,  0.00, 
 02/11/14, 01:00,  -4.2,  90,   2.6,   3.8,   5.9,   0.0,  0.00, 
 02/11/14, 02:00,  -4.1,  91,   2.6,   3.8,   5.9,   0.0,  0.00, 
 02/11/14, 03:00,  -4.3,  93,   2.6,   3.8,   5.9,   0.0,  0.00, 
 02/11/14, 04:00,  -4.2,  91,   2.6,   3.8,   5.9,   0.0,  0.00, 
 02/11/14, 05:00,  -4.0,  92,   2.6,   3.8,   5.9,   0.0,  0.00, 
 02/11/14, 06:00,  -4.0,  93,   2.6,   3.8,   5.9,   0.0,  0.00, 
 02/11/14, 07:00,  -3.7,  92,   2.6,   3.8,   5.9,   0.0,  0.00, 
 02/11/14, 08:00,  -3.2,  95,   2.6,   3.8,   5.9,   0.0,  0.02, 
 02/11/14, 09:00,  -2.9,  95,   2.7,   3.8,   5.9,   0.0,  0.08, 
 02/11/14, 10:00,  -2.6,  94,   2.7,   3.8,   5.9,   0.0,  0.16, 
 02/11/14, 11:00,  -2.3,  93,   2.8,   3.8,   5.9,   0.0,  0.19, 
 02/11/14, 12:00,  -2.0,  95,   2.8,   3.9,   5.9,   0.0,  0.19, 
 02/11/14, 13:00,  -1.5,  96,   2.8,   3.8,   5.9,   0.0,  0.20, 
 02/11/14, 14:00,  -1.8,  97,   2.8,   3.9,   6.0,   0.0,  0.15, 
 02/11/14, 15:00,  -2.0,  98,   2.8,   3.9,   6.0,   0.0,  0.00, 
 02/11/14, 16:00,  -2.1,  98,   2.8,   3.9,   6.0,   0.5,  0.00, 
 02/11/14, 17:00,  -2.5,  97,   2.8,   3.9,   6.0,   0.0,  0.00, 
 02/11/14, 18:00,  -2.5,  97,   2.8,   3.8,   5.9,   2.5,  0.00, 
 02/11/14, 19:00,  -2.7,  97,   2.8,   3.8,   5.9,   0.5,  0.00, 
 02/11/14, 20:00,  -3.1,  95,   2.8,   3.8,   5.9,   0.0,  0.00, 
 02/11/14, 21:00,  -4.2,  93,   2.8,   3.8,   5.8,   0.5,  0.00, 
 02/11/14, 22:00,  -3.6,  86,   2.8,   3.8,   5.8,   0.0,  0.00, 
 02/11/14, 23:00,  -3.0,  86,   2.8,   3.8,   5.8,   0.0,  0.00, 
 02/11/15, 00:00,  -2.7,  84,   2.8,   3.8,   5.8,   0.0,  0.00, 
 02/11/15, 01:00,  -2.3,  69,   2.8,   3.8,   5.8,   0.0,  0.00, 
 02/11/15, 02:00,  -2.3,  64,   2.8,   3.8,   5.8,   0.0,  0.00, 
 02/11/15, 03:00,  -2.3,  63,   2.8,   3.8,   5.8,   0.0,  0.00, 
 02/11/15, 04:00,  -2.6,  66,   2.8,   3.8,   5.8,   0.0,  0.00, 
 02/11/15, 05:00,  -1.6,  56,   2.8,   3.8,   5.8,   0.0,  0.00, 
 02/11/15, 06:00,  -1.5,  64,   2.8,   3.8,   5.8,   0.0,  0.00, 
 02/11/15, 07:00,  -1.0,  66,   2.8,   3.8,   5.8,   0.0,  0.00, 
 02/11/15, 08:00,  -0.3,  70,   2.8,   3.8,   5.8,   0.0,  0.13, 
 02/11/15, 09:00,   1.4,  65,   2.8,   3.8,   5.8,   0.0,  0.52, 
 02/11/15, 10:00,   1.9,  69,   2.8,   3.8,   5.8,   0.0,  1.05, 
 02/11/15, 11:00,   2.1,  72,   2.8,   3.8,   5.8,   0.0,  1.04, 
 02/11/15, 12:00,   1.7,  74,   2.8,   3.8,   5.8,   0.0,  0.70, 
 02/11/15, 13:00,   1.0,  78,   2.8,   3.8,   5.8,   0.0,  0.67, 
 02/11/15, 14:00,   1.7,  89,   2.8,   3.8,   5.8,   0.0,  0.85, 
 02/11/15, 15:00,   1.0,  88,   2.8,   3.9,   5.8,   0.0,  0.71, 
 02/11/15, 16:00,   1.0,  88,   2.8,   3.9,   5.9,   0.0,  0.28, 
 02/11/15, 17:00,   0.4,  89,   2.8,   3.9,   5.9,   0.0,  0.07, 
 02/11/15, 18:00,  -0.3,  89,   2.8,   3.9,   5.9,   0.0,  0.00, 
 02/11/15, 19:00,  -0.3,  82,   2.8,   3.8,   5.9,   0.0,  0.00, 
 02/11/15, 20:00,  -1.0,  81,   2.8,   3.8,   5.9,   0.0,  0.00, 
 02/11/15, 21:00,  -1.3,  84,   2.8,   3.9,   5.8,   0.0,  0.00, 
 02/11/15, 22:00,  -1.6,  82,   2.8,   3.8,   5.9,   0.0,  0.00, 
 02/11/15, 23:00,  -2.1,  82,   2.8,   3.8,   5.8,   0.0,  0.00, 
 02/11/16, 00:00,  -2.1,  84,   2.8,   3.7,   5.7,   0.0,  0.00, 
 02/11/16, 01:00,  -2.0,  73,   2.8,   3.8,   5.7,   0.0,  0.00, 